DW3795 Weather Reports


time (UTC)temp
F
wind
direction
speed
knots
gust
knots
rain 1hr
in
rain 24hr
in
rain mn
in
humidity
%
barometer
mb
20260502194528 61 158 0.9 4.3 0.00 0.00 0.00 48 1012.3
20260502193022 60 339 0.9 2.6 0.00 0.00 0.00 49 1012.3
20260502191519 60 354 0.0 1.7 0.00 0.00 0.00 50 1012.6
20260502190020 59 351 0.9 1.7 0.00 0.00 0.00 53 1012.7
20260502184515 59 352 0.0 1.7 0.00 0.00 0.00 54 1012.8
20260502183013 58 350 0.0 1.7 0.00 0.00 0.00 56 1012.9
20260502181513 58 350 0.9 2.6 0.00 0.00 0.00 54 1012.9
20260502163110 55 326 0.0 1.7 0.00 0.00 0.00 62 1014.4
20260502161619 55 327 0.9 2.6 0.00 0.00 0.00 60 1014.7
20260502151549 55 341 0.9 2.6 0.00 0.00 0.00 63 1014.5
20260502123035 53 289 0.0 0.0 0.00 0.00 0.00 75 1014.0
20260502121528 53 289 0.0 0.0 0.00 0.00 0.00 74 1014.0
20260502114524 53 10 0.0 0.9 0.00 0.00 0.00 71 1013.8
20260502113029 53 289 0.0 0.0 0.00 0.00 0.00 71 1013.7
20260502111520 53 289 0.0 0.9 0.00 0.00 0.00 72 1013.5
20260502110021 53 289 0.0 0.9 0.00 0.00 0.00 73 1013.4
20260502104519 53 289 0.0 1.7 0.00 0.00 0.00 71 1013.6
20260502103015 53 267 0.0 1.7 0.00 0.00 0.00 72 1013.6
20260502101515 52 256 0.9 5.2 0.00 0.00 0.00 74 1013.6
20260502091508 50 341 0.9 3.5 0.00 0.00 0.00 89 1013.2
20260502070112 50 187 0.0 0.9 0.00 0.00 0.00 89 1012.5
20260502064558 50 187 0.9 1.7 0.00 0.00 0.00 89 1012.6
20260502063059 50 187 0.0 1.7 0.00 0.00 0.00 89 1012.6
20260502061556 50 187 0.0 0.9 0.00 0.00 0.00 88 1012.7
20260502060055 50 187 0.0 0.9 0.00 0.00 0.00 88 1012.9
20260502054554 51 187 0.0 1.7 0.00 0.00 0.00 88 1012.8
20260502053056 51 187 0.0 0.0 0.00 0.00 0.00 87 1012.8
20260502051600 51 10 0.0 2.6 0.00 0.00 0.00 87 1012.9
20260502050050 51 187 0.0 1.7 0.00 0.00 0.00 86 1013.2
20260502044549 51 186 0.0 1.7 0.00 0.00 0.00 85 1013.0
20260502043047 52 187 0.0 0.0 0.00 0.00 0.00 84 1012.9
20260502041542 53 186 0.0 0.0 0.00 0.00 0.00 83 1012.7
20260502040039 53 186 0.0 0.9 0.00 0.00 0.00 82 1013.0
20260502034539 54 186 0.0 0.9 0.00 0.00 0.00 81 1013.1
20260502033038 54 186 0.0 1.7 0.00 0.00 0.00 80 1013.1
20260502031538 55 186 0.0 1.7 0.00 0.00 0.00 79 1012.9
20260502030044 55 185 0.0 2.6 0.00 0.00 0.00 79 1012.9
20260502024537 55 194 0.0 3.5 0.00 0.00 0.00 78 1012.9
20260502023037 56 200 0.0 3.5 0.00 0.00 0.00 77 1012.8
20260502021536 56 10 0.0 5.2 0.00 0.00 0.00 76 1012.7
20260502020036 57 223 0.9 7.0 0.00 0.00 0.00 74 1012.6
20260502014537 57 192 0.0 6.1 0.00 0.00 0.00 73 1012.6
20260502013034 58 215 0.9 7.0 0.00 0.00 0.00 71 1012.6
20260502011535 58 154 2.6 7.8 0.00 0.00 0.00 70 1012.6
20260502010034 59 136 0.9 8.7 0.00 0.00 0.00 69 1012.0
20260502004533 60 228 1.7 6.1 0.00 0.00 0.00 68 1011.8
20260502003032 60 178 1.7 7.0 0.00 0.00 0.00 67 1011.7
20260502001539 61 137 2.6 5.2 0.00 0.00 0.00 65 1011.2
20260502000031 62 321 2.6 5.2 0.00 0.00 0.00 62 1011.0
20260501234536 63 188 1.7 7.0 0.00 0.00 0.00 61 1011.0
20260501233034 64 145 0.0 7.0 0.00 0.00 0.00 58 1011.1
20260501231530 65 190 1.7 6.1 0.00 0.00 0.00 55 1011.0
20260501230034 66 96 2.6 8.7 0.00 0.00 0.00 54 1011.0
20260501224530 66 208 3.5 8.7 0.00 0.00 0.00 52 1010.9
20260501223027 67 181 1.7 7.0 0.00 0.00 0.00 51 1011.2
20260501221526 68 147 0.9 5.2 0.00 0.00 0.00 50 1011.2
20260501220025 68 183 1.7 8.7 0.00 0.00 0.00 49 1011.2
20260501214537 69 176 0.9 4.3 0.00 0.00 0.00 49 1011.3
20260501213023 69 195 0.9 9.6 0.00 0.00 0.00 48 1011.4
20260501211522 70 221 3.5 6.1 0.00 0.00 0.00 46 1011.5
20260501210022 70 80 0.9 9.6 0.00 0.00 0.00 46 1011.5
20260501204520 70 248 1.7 5.2 0.00 0.00 0.00 44 1011.9
20260501203019 70 211 3.5 8.7 0.00 0.00 0.00 43 1011.8
20260501201517 71 223 2.6 7.8 0.00 0.00 0.00 42 1012.2
20260501200015 71 87 1.7 7.0 0.00 0.00 0.00 43 1012.3